Location: Torrington
(42.0650°N, 104.1810°W)
Time: 22:45:08
(UTC-07:00)

Amateur Radio Satellites - All Passes

Search period start: 26 January 2015 22:15
Search period end: 27 January 2015 22:15
Location: Torrington, 42.0650°N, 104.1810°W

Satellite Date Start Highest point End Downlink Frequencies (MHz)
Time Altitude Azimuth
VELOX 1 26 Jan 22:16:16 22:20:32 46° 261° (W) 22:24:50 145.980
SPROUT 26 Jan 22:30:11 22:33:37 24° 68° (ENE) 22:37:08 437.525
CUBEBUG 1 26 Jan 22:32:53 22:37:13 77° 258° (WSW) 22:41:36 437.445
NANOSAT C BR1 26 Jan 22:34:42 22:38:47 40° 98° (E) 22:42:50 145.865
YUBILEINY 26 Jan 22:37:21 22:40:26 12° 308° (NW) 22:42:52 435.215
ISS 26 Jan 22:38:50 22:42:03 55° 141° (SE) 22:45:18 145.825
UNISAT 6 26 Jan 22:43:05 22:47:37 85° 102° (ESE) 22:52:00 437.425
QB50P2 26 Jan 22:47:18 22:51:34 57° 100° (E) 22:55:48 145.880/145.840
QB50P1 26 Jan 22:57:35 23:01:56 74° 103° (ESE) 23:06:13 145.935-145.965
POLYITAN 1 26 Jan 23:10:30 23:14:52 79° 284° (WNW) 23:19:09 437.675
TISAT 1 26 Jan 23:15:49 23:20:02 75° 76° (ENE) 23:24:18 437.305
ESTCUBE 1 26 Jan 23:17:56 23:21:39 25° 266° (W) 23:25:19 437.505/2401.250
ANTELSAT 26 Jan 23:19:07 23:23:20 40° 289° (WNW) 23:27:25 437.575/2403.000
BUGSAT 1 26 Jan 23:23:41 23:27:58 74° 286° (WNW) 23:32:15 437.445
TIGRISAT 26 Jan 23:28:39 23:32:42 33° 290° (WNW) 23:36:36 435.000
AIST 1 26 Jan 23:32:01 23:35:36 25° 270° (W) 23:39:05
POPSAT HIP 1 26 Jan 23:32:12 23:36:21 46° 288° (WNW) 23:40:28 437.405
DUCHIFAT 1 26 Jan 23:36:32 23:40:37 42° 288° (WNW) 23:44:39 145.980
SWISSCUBE 27 Jan 00:02:02 00:06:26 40° 70° (ENE) 00:10:54 437.505
SPROUT 27 Jan 00:05:45 00:09:36 31° 264° (W) 00:13:27 437.525
Oscar 19 27 Jan 00:07:20 00:08:49 11° 86° (E) 00:10:39 437.125/150
NANOSAT C BR1 27 Jan 00:11:19 00:14:25 19° 294° (WNW) 00:17:24 145.865
ISS 27 Jan 00:15:53 00:18:45 26° 339° (NNW) 00:21:36 145.825
BEESAT 27 Jan 00:18:07 00:22:45 53° 72° (ENE) 00:27:24 436.000
ITUPSAT 1 27 Jan 00:20:17 00:24:55 55° 73° (ENE) 00:29:36 437.325
UNISAT 6 27 Jan 00:22:49 00:23:47 10° 299° (WNW) 00:24:30 437.425
QB50P2 27 Jan 00:24:41 00:27:04 14° 296° (WNW) 00:29:17 145.880/145.840
QB50P1 27 Jan 00:35:47 00:37:17 11° 297° (WNW) 00:38:34 145.935-145.965
GONETS M04 27 Jan 00:38:54 00:46:45 40° 87° (E) 00:54:42
M-CUBED/EXP-1 PRIME 27 Jan 00:56:14 00:58:13 14° 62° (ENE) 01:00:17 437.505
STARS 27 Jan 01:21:42 01:25:37 32° 69° (ENE) 01:29:37 437.465
KKS-1 27 Jan 01:21:45 01:26:02 48° 72° (ENE) 01:30:24 437.445
AUBIESAT-1 27 Jan 01:30:06 01:33:32 28° 66° (ENE) 01:36:48 437.475
O/OREOS (USA 219) 27 Jan 01:38:56 01:43:03 32° 59° (ENE) 01:47:13 437.305
BEESAT 2 27 Jan 01:40:09 01:41:50 13° 110° (ESE) 01:43:43 435.950
SWISSCUBE 27 Jan 01:40:46 01:44:30 22° 267° (W) 01:48:08 437.505
Oscar 19 27 Jan 01:43:47 01:48:58 84° 285° (WNW) 01:54:07 437.125/150
ISS 27 Jan 01:53:59 01:56:05 15° 359° (N) 01:58:10 145.825
ITAMSAT 1 27 Jan 01:54:06 01:59:05 43° 98° (E) 02:04:04 435.822/435.867
BEESAT 3 27 Jan 01:55:26 01:58:30 21° 113° (ESE) 02:01:41 437.485
BEESAT 27 Jan 01:57:54 02:01:00 16° 270° (W) 02:03:54 436.000
ITUPSAT 1 27 Jan 02:00:15 02:03:15 16° 270° (W) 02:06:05 437.325
CUSAT 1 27 Jan 02:27:08 02:30:17 13° 78° (ENE) 02:34:04 437.405
M-CUBED/EXP-1 PRIME 27 Jan 02:28:53 02:32:58 53° 254° (WSW) 02:36:44 437.505
GONETS M04 27 Jan 02:35:09 02:43:31 46° 287° (WNW) 02:51:49
AO-7 27 Jan 02:35:27 02:39:57 16° 86° (E) 02:44:58 29.400- 29.500
Gurwin Techsat 1B 27 Jan 02:35:52 02:41:12 73° 101° (ESE) 02:46:31 435.225
MOZHAYETS 4 27 Jan 02:44:15 02:46:50 15° 64° (ENE) 02:49:34
AIST 2 27 Jan 02:58:17 03:02:09 36° 116° (ESE) 03:06:08 435.215
STARS 27 Jan 02:58:29 03:02:10 24° 266° (W) 03:05:47 437.465
KKS-1 27 Jan 03:00:05 03:03:01 17° 269° (W) 03:05:48 437.445
HORYU 2 27 Jan 03:01:28 03:05:41 41° 98° (E) 03:09:53 437.375
AUBIESAT-1 27 Jan 03:05:08 03:08:28 23° 259° (W) 03:11:32 437.475
BEESAT 2 27 Jan 03:15:29 03:19:35 64° 305° (NW) 03:23:45 435.950
O/OREOS (USA 219) 27 Jan 03:18:31 03:22:24 26° 256° (WSW) 03:26:11 437.305
DANDE 27 Jan 03:23:10 03:29:52 31° 86° (E) 03:37:13 436.750
Oscar 19 27 Jan 03:25:48 03:27:37 12° 301° (WNW) 03:29:08 437.125/150
RS-15 27 Jan 03:29:34 03:37:01 23° 103° (ESE) 03:45:02 29.354- 29.394
ISS 27 Jan 03:30:39 03:33:26 24° 19° (NNE) 03:36:14 145.825
BEESAT 3 27 Jan 03:32:34 03:36:26 38° 310° (NW) 03:40:21 437.485
ITAMSAT 1 27 Jan 03:34:08 03:38:23 25° 295° (WNW) 03:42:30 435.822/435.867
JAS-2 27 Jan 03:39:05 03:43:08 20° 92° (E) 03:47:40 435.910
CUSAT 1 27 Jan 04:04:04 04:11:59 65° 95° (E) 04:20:22 437.405
PCSat 27 Jan 04:07:15 04:12:07 36° 112° (ESE) 04:17:05 145.827
Gurwin Techsat 1B 27 Jan 04:17:24 04:20:39 16° 299° (WNW) 04:23:41 435.225
MOZHAYETS 4 27 Jan 04:19:07 04:23:40 59° 260° (W) 04:28:12
AO-7 27 Jan 04:25:46 04:34:10 83° 106° (ESE) 04:42:30 29.400- 29.500
CUBESAT XI-V 27 Jan 04:29:45 04:32:12 15° 64° (ENE) 04:34:52 437.345
AIST 2 27 Jan 04:37:14 04:40:53 26° 314° (NW) 04:44:31 435.215
HORYU 2 27 Jan 04:38:50 04:42:07 20° 294° (WNW) 04:45:15 437.375
YUBILEINY 27 Jan 04:47:30 04:51:49 15° 55° (NE) 04:56:43 435.215
BEESAT 2 27 Jan 04:57:49 04:58:43 10° 326° (NW) 04:59:29 435.950
DANDE 27 Jan 05:04:48 05:12:50 65° 284° (WNW) 05:21:30 436.750
ISS 27 Jan 05:06:54 05:10:12 66° 216° (SW) 05:13:28 145.825
STRAND 1 27 Jan 05:13:08 05:17:36 32° 68° (ENE) 05:22:09 437.568
Cubesat XI-IV 27 Jan 05:18:14 05:22:11 21° 91° (E) 05:26:17 437.490
JAS-2 27 Jan 05:23:09 05:28:36 58° 287° (WNW) 05:34:39 435.910
PRISM 27 Jan 05:31:58 05:36:05 85° 257° (WSW) 05:40:14 437.425
RS-15 27 Jan 05:37:08 05:48:06 89° 308° (NW) 05:59:11 29.354- 29.394
CUTE-I 27 Jan 05:38:25 05:43:09 32° 95° (E) 05:47:57 437.470
CUSAT 1 27 Jan 05:48:25 05:55:39 32° 295° (WNW) 06:02:55 437.405
PCSat 27 Jan 05:50:37 05:55:34 35° 310° (NW) 06:00:32 145.827
CUBESAT XI-V 27 Jan 06:04:40 06:09:14 61° 260° (W) 06:13:48 437.345
AO-7 27 Jan 06:19:44 06:26:11 25° 306° (NW) 06:32:20 29.400- 29.500
YUBILEINY 27 Jan 06:41:53 06:50:40 72° 79° (E) 06:59:28 435.215
STRAND 1 27 Jan 06:52:18 06:56:48 31° 265° (W) 07:01:18 437.568
DANDE 27 Jan 06:53:14 06:58:16 16° 306° (NW) 07:02:54 436.750
Cubesat XI-IV 27 Jan 06:57:25 07:02:38 51° 289° (WNW) 07:07:49 437.490
CUTE-I 27 Jan 07:18:25 07:23:16 35° 292° (WNW) 07:28:02 437.470
RS-15 27 Jan 07:52:36 08:02:11 33° 330° (NNW) 08:11:49 29.354- 29.394
COMPASS 1 27 Jan 08:06:58 08:09:31 16° 90° (E) 08:12:14 437.405
CANX-2 27 Jan 08:13:31 08:17:14 30° 95° (E) 08:20:58 2200.000
Oscar 11 27 Jan 08:32:35 08:34:39 14° 89° (E) 08:36:56 145.826/435.025
BRITE-PL 27 Jan 08:33:24 08:39:07 70° 101° (E) 08:44:37 437.365/2234.400
AAUSAT CUBESAT 2 27 Jan 08:34:16 08:37:51 28° 95° (E) 08:41:28 437.432
CUTE 1.7 + AOD 2 27 Jan 08:37:44 08:41:52 51° 99° (E) 08:45:59 437.475
YUBILEINY 27 Jan 08:39:59 08:46:47 25° 278° (W) 08:53:14 435.215
GOMX 1 27 Jan 08:40:35 08:45:59 58° 99° (E) 08:51:10 467.674
ANTELSAT 27 Jan 08:42:42 08:46:08 21° 66° (ENE) 08:49:42 437.575/2403.000
DELFI C3 27 Jan 08:43:37 08:45:35 14° 90° (E) 08:47:45 145.870
HO-68 27 Jan 08:45:39 08:52:45 64° 102° (ESE) 08:59:51 435.675
TIGRISAT 27 Jan 08:51:27 08:55:12 25° 68° (ENE) 08:59:03 435.000
POPSAT HIP 1 27 Jan 08:51:53 08:54:01 14° 64° (ENE) 08:56:21 437.405
DUCHIFAT 1 27 Jan 08:55:38 08:58:01 15° 65° (ENE) 09:00:33 145.980
VERMONT LUNAR 27 Jan 08:57:04 08:59:38 20° 153° (SSE) 09:02:15 437.305
CUBEBUG 2 27 Jan 08:58:40 09:01:57 20° 90° (E) 09:05:18 437.445
DOVE 4 27 Jan 09:03:31 09:08:47 69° 101° (E) 09:13:48 437.250
UKube-1 27 Jan 09:06:03 09:08:57 18° 92° (E) 09:12:00 .
CINEMA 3 27 Jan 09:07:24 09:12:04 42° 97° (E) 09:16:32 145.822/145.860
SEEDS 27 Jan 09:11:33 09:15:45 77° 284° (WNW) 09:19:55 437.485
ZACube-1 27 Jan 09:16:05 09:19:22 20° 91° (E) 09:22:42 437.345
DX 1 27 Jan 09:23:30 09:27:19 28° 96° (E) 09:31:09 434.975-435.025
NANOSAT C BR1 27 Jan 09:28:05 09:31:52 32° 70° (ENE) 09:35:44 145.865
FUNcube-1 27 Jan 09:28:28 09:32:15 27° 94° (E) 09:36:00 145.935
50 SAT 27 Jan 09:34:36 09:36:02 12° 88° (E) 09:37:42 437.505
HUMSAT D 27 Jan 09:36:43 09:39:36 18° 91° (E) 09:42:35 437.325/437.525
AISAT 27 Jan 09:38:10 09:40:56 16° 91° (E) 09:43:51 437.250
QB50P2 27 Jan 09:40:46 09:44:51 45° 72° (ENE) 09:48:59 145.880/145.840
COMPASS 1 27 Jan 09:41:33 09:45:31 42° 288° (WNW) 09:49:25 437.405
UNISAT 6 27 Jan 09:42:02 09:46:46 80° 76° (ENE) 09:51:30 437.425
PHONESAT 2.4 27 Jan 09:42:21 09:45:17 24° 155° (SSE) 09:48:16 2401.200-2431.200
UWE-3 27 Jan 09:42:41 09:47:06 48° 99° (E) 09:51:22 435.000/436.395/437.385
CANX-2 27 Jan 09:49:39 09:53:05 24° 292° (WNW) 09:56:26 2200.000
QB50P1 27 Jan 09:50:47 09:54:58 58° 74° (ENE) 09:59:12 145.935-145.965
BEESAT 2 27 Jan 09:58:17 10:00:20 13° 37° (NE) 10:02:28 435.950
POLYITAN 1 27 Jan 10:03:55 10:08:14 83° 73° (ENE) 10:12:34 437.675
VELOX 1 27 Jan 10:06:43 10:10:43 31° 96° (E) 10:14:44 145.980
Oscar 11 27 Jan 10:07:02 10:11:15 53° 286° (WNW) 10:15:26 145.826/435.025
AAUSAT CUBESAT 2 27 Jan 10:10:03 10:13:27 24° 291° (WNW) 10:16:45 437.432
RS-15 27 Jan 10:11:11 10:19:15 22° 4° (N) 10:27:36 29.354- 29.394
BRITE-PL 27 Jan 10:13:07 10:17:03 19° 297° (WNW) 10:20:43 437.365/2234.400
BEESAT 3 27 Jan 10:14:05 10:17:04 19° 42° (NE) 10:20:05 437.485
BUGSAT 1 27 Jan 10:14:14 10:18:19 82° 75° (ENE) 10:22:29 437.445
CUTE 1.7 + AOD 2 27 Jan 10:14:59 10:17:27 15° 295° (WNW) 10:19:46 437.475
DELFI C3 27 Jan 10:17:16 10:21:11 47° 287° (WNW) 10:25:03 145.870
ANTELSAT 27 Jan 10:18:09 10:22:41 44° 262° (W) 10:27:12 437.575/2403.000
GOMX 1 27 Jan 10:19:38 10:23:40 21° 296° (WNW) 10:27:26 467.674
CUBEBUG 1 27 Jan 10:22:22 10:25:31 19° 92° (E) 10:28:48 437.445
SO-50 27 Jan 10:23:53 10:28:12 44° 117° (ESE) 10:32:42 436.795
POPSAT HIP 1 27 Jan 10:25:18 10:29:30 58° 260° (W) 10:33:46 437.405
AIST 1 27 Jan 10:25:41 10:28:11 16° 87° (E) 10:30:52
TIGRISAT 27 Jan 10:27:25 10:31:48 36° 264° (W) 10:36:09 435.000
DUCHIFAT 1 27 Jan 10:29:20 10:33:30 52° 261° (W) 10:37:43 145.980
VERMONT LUNAR 27 Jan 10:33:57 10:37:22 54° 169° (SSE) 10:40:50 437.305
HO-68 27 Jan 10:34:12 10:40:02 27° 300° (WNW) 10:45:42 435.675
CUBEBUG 2 27 Jan 10:34:33 10:38:55 41° 289° (WNW) 10:43:06 437.445
UKube-1 27 Jan 10:41:14 10:45:22 42° 289° (WNW) 10:49:28 .
DOVE 4 27 Jan 10:42:40 10:45:58 17° 298° (WNW) 10:49:01 437.250
CINEMA 3 27 Jan 10:45:12 10:49:00 22° 294° (WNW) 10:52:35 145.822/145.860
GONETS M04 27 Jan 10:48:52 10:54:39 20° 60° (ENE) 11:00:49
ZACube-1 27 Jan 10:51:48 10:55:56 37° 289° (WNW) 10:59:56 437.345
DX 1 27 Jan 10:59:46 11:03:32 27° 292° (WNW) 11:07:11 434.975-435.025
TISAT 1 27 Jan 11:02:32 11:04:01 12° 88° (E) 11:05:44 437.305
NANOSAT C BR1 27 Jan 11:04:27 11:07:50 22° 267° (W) 11:11:10 145.865
FUNcube-1 27 Jan 11:04:45 11:08:36 28° 291° (WNW) 11:12:17 145.935
50 SAT 27 Jan 11:07:37 11:11:37 54° 286° (WNW) 11:15:32 437.505
ESTCUBE 1 27 Jan 11:09:16 11:13:48 66° 102° (ESE) 11:18:17 437.505/2401.250
HUMSAT D 27 Jan 11:11:39 11:15:38 38° 289° (WNW) 11:19:31 437.325/437.525
AISAT 27 Jan 11:13:31 11:17:54 49° 288° (WNW) 11:22:14 437.250
QB50P2 27 Jan 11:18:20 11:21:04 16° 270° (W) 11:23:40 145.880/145.840
AIST 2 27 Jan 11:19:45 11:23:33 30° 47° (NE) 11:27:20 435.215
PHONESAT 2.4 27 Jan 11:19:57 11:23:32 60° 170° (S) 11:27:08 2401.200-2431.200
UWE-3 27 Jan 11:20:13 11:23:18 18° 295° (WNW) 11:26:11 435.000/436.395/437.385
UNISAT 6 27 Jan 11:22:57 11:24:14 11° 274° (W) 11:25:12 437.425
Oscar 19 27 Jan 11:23:39 11:27:15 20° 64° (ENE) 11:31:00 437.125/150
QB50P1 27 Jan 11:29:22 11:31:20 12° 272° (W) 11:33:04 145.935-145.965
BEESAT 2 27 Jan 11:35:01 11:39:14 90° 48° (NE) 11:43:22 435.950
VELOX 1 27 Jan 11:43:27 11:47:13 26° 292° (WNW) 11:50:52 145.980
BEESAT 3 27 Jan 11:51:28 11:55:33 53° 241° (WSW) 11:59:32 437.485
SPROUT 27 Jan 11:51:41 11:55:51 43° 98° (E) 12:00:00 437.525
CUBEBUG 1 27 Jan 11:57:56 12:02:07 40° 289° (WNW) 12:06:16 437.445
AIST 1 27 Jan 12:01:31 12:05:33 41° 283° (WNW) 12:09:36
SO-50 27 Jan 12:05:04 12:08:58 26° 317° (NW) 12:12:56 436.795
VERMONT LUNAR 27 Jan 12:11:54 12:15:23 66° 186° (S) 12:18:54 437.305
BEESAT 27 Jan 12:19:49 12:21:58 13° 88° (E) 12:24:21 436.000
Gurwin Techsat 1B 27 Jan 12:20:08 12:23:18 17° 62° (ENE) 12:26:40 435.225
ITUPSAT 1 27 Jan 12:22:13 12:24:32 14° 89° (E) 12:27:06 437.325
RS-15 27 Jan 12:25:32 12:35:53 40° 37° (NE) 12:46:47 29.354- 29.394
TISAT 1 27 Jan 12:36:05 12:40:21 62° 286° (WNW) 12:44:35 437.305
GONETS M04 27 Jan 12:44:11 12:52:57 89° 260° (W) 13:01:39
ESTCUBE 1 27 Jan 12:47:52 12:50:12 14° 297° (WNW) 12:52:22 437.505/2401.250
PCSat 27 Jan 12:54:24 12:59:19 34° 50° (NE) 13:04:15 145.827
AIST 2 27 Jan 12:58:23 13:02:10 30° 245° (WSW) 13:05:50 435.215
PHONESAT 2.4 27 Jan 12:58:23 13:02:00 64° 188° (S) 13:05:38 2401.200-2431.200
Oscar 19 27 Jan 13:01:08 13:06:13 56° 259° (W) 13:11:22 437.125/150
ITAMSAT 1 27 Jan 13:12:28 13:17:36 69° 73° (ENE) 13:22:47 435.822/435.867
SPROUT 27 Jan 13:28:36 13:31:40 18° 294° (WNW) 13:34:35 437.525
AO-7 27 Jan 13:34:34 13:41:07 28° 55° (NE) 13:47:54 29.400- 29.500
SWISSCUBE 27 Jan 13:39:21 13:44:10 88° 283° (WNW) 13:48:57 437.505
VERMONT LUNAR 27 Jan 13:50:07 13:53:17 31° 201° (SSW) 13:56:27 437.305
BEESAT 27 Jan 13:55:38 14:00:23 66° 286° (WNW) 14:05:07 436.000
Gurwin Techsat 1B 27 Jan 13:57:29 14:02:46 70° 258° (WSW) 14:08:06 435.225
ITUPSAT 1 27 Jan 13:58:13 14:02:58 64° 286° (WNW) 14:07:42 437.325
HORYU 2 27 Jan 14:00:16 14:04:29 41° 71° (ENE) 14:08:45 437.375
DANDE 27 Jan 14:07:48 14:12:58 22° 58° (ENE) 14:17:26 436.750
PHONESAT 2.4 27 Jan 14:37:08 14:40:18 28° 204° (SSW) 14:43:28 2401.200-2431.200
PCSat 27 Jan 14:37:47 14:42:47 37° 248° (WSW) 14:47:42 145.827
RS-15 27 Jan 14:37:59 14:49:19 73° 242° (WSW) 15:01:07 29.354- 29.394
GONETS M04 27 Jan 14:43:13 14:48:42 18° 281° (W) 14:53:42
AUBIESAT-1 27 Jan 14:46:23 14:48:28 16° 99° (E) 14:50:41 437.475
STARS 27 Jan 14:47:06 14:51:31 59° 101° (E) 14:55:54 437.465
CUSAT 1 27 Jan 14:47:08 14:53:31 46° 71° (ENE) 14:58:21 437.405
KKS-1 27 Jan 14:48:55 14:53:28 86° 280° (W) 14:57:56 437.445
ITAMSAT 1 27 Jan 14:54:47 14:57:44 15° 272° (W) 15:00:24 435.822/435.867
SWISSCUBE 27 Jan 15:20:00 15:21:23 11° 300° (WNW) 15:22:30 437.505
AO-7 27 Jan 15:24:53 15:33:16 75° 255° (WSW) 15:41:40 29.400- 29.500
JAS-2 27 Jan 15:36:13 15:41:41 61° 74° (ENE) 15:46:52 435.910
HORYU 2 27 Jan 15:38:03 15:41:23 19° 268° (W) 15:44:35 437.375
M-CUBED/EXP-1 PRIME 27 Jan 15:45:26 15:48:45 69° 290° (WNW) 15:52:06 437.505
DANDE 27 Jan 15:50:28 15:57:26 63° 266° (W) 16:02:36 436.750
O/OREOS (USA 219) 27 Jan 15:51:45 15:55:43 32° 105° (ESE) 15:59:47 437.305
MOZHAYETS 4 27 Jan 16:14:10 16:18:13 31° 95° (E) 16:22:18
AUBIESAT-1 27 Jan 16:20:41 16:23:32 26° 294° (WNW) 16:26:23 437.475
STARS 27 Jan 16:25:03 16:27:34 15° 297° (WNW) 16:29:55 437.465
CUSAT 1 27 Jan 16:31:02 16:35:58 23° 277° (W) 16:39:52 437.405
Cubesat XI-IV 27 Jan 16:40:31 16:45:18 36° 68° (ENE) 16:50:11 437.490
RS-15 27 Jan 16:53:24 17:00:09 17° 260° (W) 17:06:07 29.354- 29.394
CUTE-I 27 Jan 17:00:39 17:05:47 54° 72° (ENE) 17:11:01 437.470
PRISM 27 Jan 17:16:10 17:18:01 13° 90° (E) 17:20:06 437.425
SO-50 27 Jan 17:16:32 17:17:41 11° 29° (NNE) 17:19:01 436.795
AO-7 27 Jan 17:23:23 17:27:40 14° 275° (W) 17:31:19 29.400- 29.500
JAS-2 27 Jan 17:23:52 17:27:20 16° 270° (W) 17:30:27 435.910
O/OREOS (USA 219) 27 Jan 17:31:24 17:35:12 26° 303° (WNW) 17:38:58 437.305
MOZHAYETS 4 27 Jan 17:51:33 17:55:23 26° 291° (WNW) 17:59:08
YUBILEINY 27 Jan 17:51:44 17:55:57 15° 77° (ENE) 18:00:43 435.215
CUBESAT XI-V 27 Jan 18:01:14 18:05:24 32° 95° (E) 18:09:38 437.345
BRITE-PL 27 Jan 18:10:17 18:11:39 11° 58° (ENE) 18:13:20 437.365/2234.400
Cubesat XI-IV 27 Jan 18:20:51 18:25:29 29° 265° (W) 18:30:06 437.490
CUTE-I 27 Jan 18:42:24 18:46:17 20° 269° (W) 18:50:01 437.470
PRISM 27 Jan 18:49:53 18:53:56 52° 287° (WNW) 18:57:58 437.425
SO-50 27 Jan 18:54:44 18:59:30 48° 51° (NE) 19:04:17 436.795
COMPASS 1 27 Jan 19:00:01 19:01:59 13° 65° (ENE) 19:04:08 437.405
STRAND 1 27 Jan 19:01:31 19:06:43 85° 107° (ESE) 19:11:53 437.568
CANX-2 27 Jan 19:07:21 19:10:47 24° 69° (ENE) 19:14:18 2200.000
HO-68 27 Jan 19:14:27 19:21:14 50° 67° (ENE) 19:28:06 435.675
AAUSAT CUBESAT 2 27 Jan 19:26:18 19:29:31 22° 68° (ENE) 19:32:49 437.432
Oscar 11 27 Jan 19:28:45 19:30:32 13° 64° (ENE) 19:32:31 145.826/435.025
CUTE 1.7 + AOD 2 27 Jan 19:31:09 19:35:08 39° 72° (ENE) 19:39:10 437.475
DELFI C3 27 Jan 19:34:22 19:34:55 10° 63° (ENE) 19:35:42 145.870
CUBESAT XI-V 27 Jan 19:38:49 19:42:47 27° 292° (WNW) 19:46:41 437.345
YUBILEINY 27 Jan 19:42:51 19:51:31 81° 95° (E) 20:00:15 435.215
BRITE-PL 27 Jan 19:44:16 19:49:14 78° 76° (ENE) 19:54:40 437.365/2234.400
GOMX 1 27 Jan 19:48:37 19:53:33 62° 74° (ENE) 19:58:52 467.674
CUBEBUG 2 27 Jan 19:57:31 20:00:52 20° 66° (ENE) 20:04:23 437.445
UKube-1 27 Jan 20:02:04 20:04:51 17° 65° (ENE) 20:07:47 .
SEEDS 27 Jan 20:03:56 20:08:13 78° 75° (ENE) 20:12:29 437.485
DOVE 4 27 Jan 20:08:58 20:13:57 71° 75° (ENE) 20:19:12 437.250
CINEMA 3 27 Jan 20:09:08 20:13:44 42° 71° (ENE) 20:18:30 145.822/145.860
ZACube-1 27 Jan 20:12:50 20:16:03 20° 66° (ENE) 20:19:26 437.345
DX 1 27 Jan 20:19:50 20:23:28 27° 68° (ENE) 20:27:12 434.975-435.025
FUNcube-1 27 Jan 20:24:51 20:28:33 25° 68° (ENE) 20:32:20 145.935
HUMSAT D 27 Jan 20:29:57 20:32:29 16° 65° (ENE) 20:35:10 437.325/437.525
COMPASS 1 27 Jan 20:33:06 20:37:18 58° 260° (W) 20:41:28 437.405
SO-50 27 Jan 20:35:54 20:39:49 23° 247° (WSW) 20:43:37 436.795
AISAT 27 Jan 20:37:14 20:39:58 17° 64° (ENE) 20:42:52 437.250
UWE-3 27 Jan 20:40:00 20:44:23 43° 72° (ENE) 20:48:52 435.000/436.395/437.385
STRAND 1 27 Jan 20:42:48 20:45:17 13° 300° (WNW) 20:47:32 437.568
CANX-2 27 Jan 20:42:48 20:46:38 30° 265° (W) 20:50:26 2200.000
AAUSAT CUBESAT 2 27 Jan 21:01:13 21:05:03 32° 264° (W) 21:08:50 437.432
Oscar 11 27 Jan 21:01:55 21:06:15 67° 259° (W) 21:10:36 145.826/435.025
HO-68 27 Jan 21:02:53 21:09:13 33° 265° (W) 21:15:27 435.675
VELOX 1 27 Jan 21:05:09 21:08:59 30° 69° (ENE) 21:12:55 145.980
DELFI C3 27 Jan 21:05:35 21:09:40 73° 258° (WSW) 21:13:46 145.870
CUTE 1.7 + AOD 2 27 Jan 21:08:12 21:11:17 18° 269° (W) 21:14:14 437.475
CUBEBUG 1 27 Jan 21:19:44 21:22:36 18° 65° (ENE) 21:25:36 437.445
BRITE-PL 27 Jan 21:26:15 21:28:38 13° 276° (W) 21:30:45 437.365/2234.400
GOMX 1 27 Jan 21:29:00 21:32:16 16° 273° (W) 21:35:26 467.674
CUBEBUG 2 27 Jan 21:32:41 21:37:16 47° 262° (W) 21:41:54 437.445
UNISAT 6 27 Jan 21:35:27 21:38:06 16° 89° (E) 21:40:52 437.425
UKube-1 27 Jan 21:36:33 21:40:43 46° 261° (W) 21:44:54 .
YUBILEINY 27 Jan 21:42:56 21:49:34 22° 298° (WNW) 21:55:53 435.215
CINEMA 3 27 Jan 21:47:14 21:51:09 23° 269° (W) 21:55:03 145.822/145.860
ISS 27 Jan 21:47:28 21:50:21 29° 137° (SE) 21:53:16 145.825
ZACube-1 27 Jan 21:47:43 21:52:09 45° 262° (W) 21:56:36 437.345
DOVE 4 27 Jan 21:49:39 21:52:24 14° 274° (W) 21:54:57 437.250
POLYITAN 1 27 Jan 21:51:02 21:53:08 14° 89° (E) 21:55:26 437.675
50 SAT 27 Jan 21:55:04 21:59:13 85° 257° (WSW) 22:03:23 437.505
DX 1 27 Jan 21:55:55 21:59:41 28° 264° (W) 22:03:26 434.975-435.025
TISAT 1 27 Jan 21:56:59 21:57:42 10° 62° (ENE) 21:58:38 437.305
BUGSAT 1 27 Jan 21:58:17 21:59:55 12° 88° (E) 22:01:47 437.445
FUNcube-1 27 Jan 22:00:34 22:04:46 34° 264° (W) 22:08:58 145.935
HUMSAT D 27 Jan 22:03:39 22:07:55 52° 261° (W) 22:12:12 437.325/437.525
